Weather in Krasny Ostrov

Russia / Nizhny Novgorod Oblast'     55°19′34″N   46°02′05″E
temp.,
°C
wind,
m/s
gust,
m/s
humid.,
%
clouds,
%
prec.,
mm/h
press.,
hPa
HPBL,
m
13 august, sat
sat1300:00+17wnw11675 0.0 102211
03:00+15w226920 0.0 102211
06:00+17wnw236977 0.0 102275
09:00+22nw3353100 0.0 1022490
12:00+25nnw3346100 0.0 10221283
15:00+26nnw3345100 0.0 10211567
18:00+24nne2257100 0.0 102038
21:00+19ene1173100 0.0 102111
14 august, sun
sun1400:00+17ene1282100 0.0 102111
03:00+16e1181100 0.0 102111
06:00+18ene237918 0.0 102297
09:00+23e345169 0.0 1022624
12:00+26ene3341100 0.0 10211754
15:00+27ene434039 0.0 10202033
18:00+24ene465266 0.0 1020370
21:00+19e347125 0.0 102159
15 august, mon
mon1500:00+17ese347713 0.0 102258
03:00+15ese227311 0.0 102321
06:00+17e23685 0.0 102394
09:00+23e344619 0.0 1024626
12:00+26e34385 0.0 10231756
15:00+27ene443783 0.0 10232101
18:00+24ene35495 0.0 1023257
21:00+18e226798 0.0 102412
16 august, tue
tue1600:00+16ese227234 0.0 102511
03:00+15e11738 0.0 102511
06:00+17e226556 0.0 102663
09:00+23e344347 0.0 1026553
12:00+26e44385 0.0 10251944
15:00+27e54367 0.0 10242170
18:00+24ene474811 0.0 1024393
21:00+18e366858 0.0 1025107
17 august, wed
wed1700:00+16ese34695 0.0 102557
03:00+15e34735 0.0 102562
06:00+16e38735 0.0 1025208
09:00+23ese46470 0.0 1025714
12:00+26ese45360 0.0 10231847
15:00+27ese55295 0.0 10221998
18:00+24e3643100 0.0 1022182
21:00+19e3466100 0.0 102254